This demonstration page uses our WeatherBlox Daily Observations layout. Learn more.

Left ArrowRight Arrow

Hourly Observations for May 25, 2015

Temp ( °F °C ) Dew Point ( °F °C ) Humidity (%) Winds ( mph kmh ) Pressure ( in mb ) Visibility ( mi km ) Precip ( " mm )
12:52 am 00:52 Cloudy 66 18.9 60 15.6 81 81 SSW 5 7 29.76 1008 10 16 0.00 0.00
1:52 am 01:52 Cloudy 65 18.3 60 15.6 84 84 SSW 5 7 29.75 1007 10 16 0.00 0.00
2:52 am 02:52 Cloudy 63 17.2 60 15.6 90 90 SSE 6 9 29.75 1007 10 16 0.00 0.00
3:52 am 03:52 Cloudy 64 17.8 61 16.1 90 90 S 7 11 29.75 1007 10 16 0.00 0.00
4:52 am 04:52 Cloudy 62 16.7 60 15.6 93 93 SE 7 11 29.74 1007 10 16 0.00 0.00
5:49 am 05:49 Mostly Cloudy with Mist and Fog 63 17 61 16 94 94 S 8 13 29.74 1007 6 10 0.00 0.00
5:52 am 05:52 Mostly Cloudy with Mist and Fog 62 16.7 61 16.1 96 96 S 8 13 29.76 1008 6 10 0.00 0.00
6:01 am 06:01 Mostly Cloudy with Mist and Fog 62 16.7 61 16.1 96 96 S 9 15 29.74 1007 6 10 0.00 0.00
6:21 am 06:21 Mostly Cloudy with Mist and Fog 62 16.7 61 16.1 96 96 SSE 7 11 29.74 1007 5 8 0.00 0.00
6:52 am 06:52 Cloudy with Mist and Fog 62 16.7 61 16.1 96 96 SSE 10 17 29.78 1008 5 8 0.00 0.00
7:33 am 07:33 Cloudy 64 17.8 61 16.1 90 90 S 12 19 29.77 1008 7 11 0.00 0.00
7:52 am 07:52 Cloudy 64 17.8 60 15.6 87 87 S 13 20 29.79 1009 10 16 0.00 0.00
8:43 am 08:43 Mostly Cloudy 65 18.3 60 15.6 84 84 SSE 7 11 29.74 1007 10 16 0.00 0.00
8:52 am 08:52 Mostly Cloudy 65 18.3 59 15 81 81 S 9 15 29.77 1008 10 16 0.00 0.00
9:52 am 09:52 Mostly Cloudy 66 18.9 59 15 78 78 SSW 8 13 29.80 1009 10 16 0.00 0.00
10:52 am 10:52 Partly Cloudy 71 21.7 58 14.4 63 63 S 13 20 29.79 1009 10 16 0.00 0.00
11:52 am 11:52 Partly Cloudy 73 22.8 58 14.4 59 59 SSW 12 19 29.77 1008 10 16 0.00 0.00
12:52 pm 12:52 Partly Cloudy 75 23.9 56 13.3 52 52 SSW 10 17 29.78 1008 10 16 0.00 0.00
1:52 pm 13:52 Partly Cloudy 77 25 57 13.9 50 50 SSW 14 22 29.77 1008 10 16 0.00 0.00
2:52 pm 14:52 Partly Cloudy 79 26.1 57 13.9 47 47 SW 13 20 29.76 1008 10 16 0.00 0.00
3:52 pm 15:52 Mostly Cloudy 80 26.7 60 15.6 51 51 S 14 22 29.75 1008 10 16 0.00 0.00
4:52 pm 16:52 Partly Cloudy 81 27.2 61 16.1 51 51 S 15 24 29.73 1007 10 16 0.00 0.00
5:52 pm 17:52 Mostly Cloudy 80 26.7 60 15.6 51 51 S 16 26 29.71 1006 10 16 0.00 0.00
6:52 pm 18:52 Cloudy 78 25.6 61 16.1 56 56 S 13 20 29.72 1006 10 16 0.00 0.00
7:52 pm 19:52 Cloudy 72 22.2 59 15 64 64 SSE 23 37 29.74 1007 10 16 0.00 0.00
8:52 pm 20:52 Cloudy 68 20 59 15 73 73 SSE 29 46 29.73 1007 10 16 0.00 0.00
9:52 pm 21:52 Cloudy 66 18.9 60 15.6 81 81 S 10 17 29.79 1009 10 16 0.00 0.00
10:52 pm 22:52 Cloudy 66 18.9 59 15 78 78 W 6 9 29.81 1009 10 16 0.00 0.00
11:52 pm 23:52 Cloudy 65 18.3 59 15 81 81 E 5 7 29.78 1008 10 16 0.00 0.00

Powered by AerisWeather